UAL1010 KEWR-KBNA

Flight info

Callsign UAL1010
Flight time 1h 27m
Altitude 32000
Route PARKE J6 MRB/N0452F360 J6 HVQ Q68 YOCKY CUTRR PASLY5
Aircraft A321/M-SDE3FGHIRWY/LB1

Departure

Time 2026-05-06 03:01
Airport Newark Liberty International Airport (KEWR)

Arrival

Time 2026-05-06 04:29
Airport Nashville International Airport (KBNA)
Time Latitude Longitude Altitude Speed Heading
2026-05-06 02:19 40.69414 -74.17429 27 ft 0 kts 28°
2026-05-06 02:48 40.69399 -74.17441 22 ft 4 kts 37°
2026-05-06 02:49 40.69380 -74.17465 22 ft 4 kts 69°
2026-05-06 02:49 40.69380 -74.17489 22 ft 3 kts 144°
2026-05-06 02:49 40.69382 -74.17491 22 ft 0 kts 148°
2026-05-06 02:54 40.69357 -74.17469 23 ft 4 kts 143°
2026-05-06 02:54 40.69353 -74.17460 22 ft 0 kts 116°
2026-05-06 02:55 40.69346 -74.17431 24 ft 8 kts 107°
2026-05-06 02:56 40.69323 -74.17345 22 ft 8 kts 116°
2026-05-06 02:56 40.69293 -74.17281 22 ft 9 kts 124°
2026-05-06 02:56 40.69269 -74.17234 22 ft 9 kts 124°
2026-05-06 02:56 40.69255 -74.17159 22 ft 8 kts 75°
2026-05-06 02:57 40.69300 -74.17107 22 ft 11 kts 29°
2026-05-06 02:57 40.69392 -74.17047 22 ft 19 kts 25°
2026-05-06 02:57 40.69534 -74.16956 22 ft 24 kts 26°
2026-05-06 02:57 40.69670 -74.16870 22 ft 17 kts 26°
2026-05-06 02:58 40.69754 -74.16812 22 ft 9 kts 37°
2026-05-06 02:58 40.69786 -74.16749 22 ft 6 kts 60°
2026-05-06 02:58 40.69793 -74.16732 23 ft 0 kts 60°
2026-05-06 02:59 40.69800 -74.16711 22 ft 8 kts 65°
2026-05-06 02:59 40.69807 -74.16649 21 ft 0 kts 101°
2026-05-06 02:59 40.69804 -74.16633 21 ft 8 kts 105°
2026-05-06 02:59 40.69747 -74.16551 21 ft 13 kts 176°
2026-05-06 03:00 40.69720 -74.16561 21 ft 0 kts 201°
2026-05-06 03:00 40.69715 -74.16563 22 ft 4 kts 202°
2026-05-06 03:00 40.69583 -74.16645 23 ft 51 kts 205°
2026-05-06 03:00 40.69069 -74.16971 23 ft 110 kts 206°
2026-05-06 03:01 40.68242 -74.17490 66 ft 148 kts 205°
2026-05-06 03:01 40.67311 -74.18104 587 ft 151 kts 206°
2026-05-06 03:01 40.66399 -74.18749 1166 ft 149 kts 208°
2026-05-06 03:01 40.65487 -74.19389 1754 ft 150 kts 212°
2026-05-06 03:02 40.64641 -74.20325 1899 ft 176 kts 233°
2026-05-06 03:02 40.64429 -74.22118 1938 ft 231 kts 274°
2026-05-06 03:02 40.65216 -74.24083 2775 ft 251 kts 296°
2026-05-06 03:02 40.66135 -74.26007 3623 ft 243 kts 281°
2026-05-06 03:03 40.66315 -74.28155 4446 ft 235 kts 263°
2026-05-06 03:03 40.66158 -74.30310 5231 ft 238 kts 259°
2026-05-06 03:03 40.65956 -74.32490 6059 ft 241 kts 259°
2026-05-06 03:03 40.65751 -74.34675 6810 ft 246 kts 260°
2026-05-06 03:04 40.65550 -74.36936 7529 ft 252 kts 263°
2026-05-06 03:04 40.65529 -74.39269 8250 ft 258 kts 269°
2026-05-06 03:04 40.65631 -74.41659 8966 ft 264 kts 271°
2026-05-06 03:04 40.65773 -74.44096 9667 ft 270 kts 272°
2026-05-06 03:05 40.65918 -74.46584 10245 ft 279 kts 272°
2026-05-06 03:05 40.66058 -74.49237 10441 ft 302 kts 271°
2026-05-06 03:05 40.66192 -74.52079 10760 ft 318 kts 271°
2026-05-06 03:05 40.66321 -74.55013 11389 ft 323 kts 271°
2026-05-06 03:06 40.66447 -74.57981 12081 ft 327 kts 270°
2026-05-06 03:06 40.66568 -74.60940 12796 ft 329 kts 270°
2026-05-06 03:06 40.66687 -74.63968 13509 ft 332 kts 269°
2026-05-06 03:06 40.66804 -74.67024 14153 ft 336 kts 269°
2026-05-06 03:07 40.66922 -74.70102 14799 ft 338 kts 269°
2026-05-06 03:07 40.67042 -74.73206 15460 ft 340 kts 269°
2026-05-06 03:07 40.67162 -74.76328 16114 ft 342 kts 269°
2026-05-06 03:07 40.67280 -74.79466 16763 ft 344 kts 269°
2026-05-06 03:08 40.67401 -74.82626 17409 ft 346 kts 269°
2026-05-06 03:08 40.67523 -74.85806 18043 ft 349 kts 269°
2026-05-06 03:08 40.67642 -74.88968 18591 ft 351 kts 269°
2026-05-06 03:08 40.67763 -74.92188 19133 ft 353 kts 269°
2026-05-06 03:09 40.67885 -74.95429 19671 ft 355 kts 269°
2026-05-06 03:09 40.68006 -74.98690 20197 ft 357 kts 269°
2026-05-06 03:09 40.68122 -75.01973 20719 ft 359 kts 269°
2026-05-06 03:09 40.68107 -75.05253 21233 ft 358 kts 261°
2026-05-06 03:10 40.67603 -75.08454 21763 ft 357 kts 250°
2026-05-06 03:10 40.66604 -75.11446 22268 ft 358 kts 240°
2026-05-06 03:10 40.65319 -75.14266 22782 ft 360 kts 239°
2026-05-06 03:10 40.64038 -75.17060 23284 ft 362 kts 239°
2026-05-06 03:11 40.62733 -75.19908 23707 ft 365 kts 239°
2026-05-06 03:11 40.61422 -75.22779 24087 ft 367 kts 239°
2026-05-06 03:11 40.60102 -75.25671 24441 ft 370 kts 239°
2026-05-06 03:11 40.58773 -75.28581 24807 ft 373 kts 239°
2026-05-06 03:12 40.57432 -75.31516 25187 ft 375 kts 239°
2026-05-06 03:12 40.56082 -75.34464 25563 ft 378 kts 240°
2026-05-06 03:12 40.54721 -75.37438 25930 ft 381 kts 240°
2026-05-06 03:12 40.53350 -75.40423 26301 ft 383 kts 240°
2026-05-06 03:13 40.51984 -75.43388 26650 ft 386 kts 240°
2026-05-06 03:13 40.50589 -75.46414 26995 ft 388 kts 240°
2026-05-06 03:13 40.49185 -75.49460 27338 ft 391 kts 240°
2026-05-06 03:13 40.47775 -75.52523 27676 ft 393 kts 240°
2026-05-06 03:14 40.46356 -75.55603 28024 ft 395 kts 240°
2026-05-06 03:14 40.44923 -75.58702 28353 ft 398 kts 240°
2026-05-06 03:14 40.43483 -75.61812 28662 ft 400 kts 240°
2026-05-06 03:14 40.42031 -75.64947 28976 ft 403 kts 240°
2026-05-06 03:15 40.40573 -75.68097 29307 ft 405 kts 240°
2026-05-06 03:15 40.39126 -75.71219 29617 ft 407 kts 240°
2026-05-06 03:15 40.37646 -75.74406 29917 ft 410 kts 240°
2026-05-06 03:15 40.36158 -75.77601 30173 ft 412 kts 240°
2026-05-06 03:16 40.34661 -75.80813 30416 ft 414 kts 240°
2026-05-06 03:16 40.33158 -75.84040 30670 ft 416 kts 240°
2026-05-06 03:16 40.31647 -75.87290 30921 ft 418 kts 240°
2026-05-06 03:16 40.30131 -75.90546 31252 ft 419 kts 241°
2026-05-06 03:17 40.28612 -75.93801 31612 ft 418 kts 241°
2026-05-06 03:17 40.27094 -75.97044 31826 ft 418 kts 241°
2026-05-06 03:17 40.25599 -76.00229 31884 ft 410 kts 241°
2026-05-06 03:18 40.22671 -76.06457 31889 ft 398 kts 241°
2026-05-06 03:18 40.19778 -76.12620 31902 ft 397 kts 241°
2026-05-06 03:19 40.16889 -76.18764 31908 ft 397 kts 242°
2026-05-06 03:19 40.14012 -76.24860 31905 ft 397 kts 242°
2026-05-06 03:20 40.09692 -76.34071 31892 ft 396 kts 243°
2026-05-06 03:20 40.06862 -76.40246 31862 ft 396 kts 243°
2026-05-06 03:21 40.04028 -76.46412 31866 ft 396 kts 243°
2026-05-06 03:21 40.01202 -76.52528 31874 ft 396 kts 243°
2026-05-06 03:22 39.98349 -76.58675 31885 ft 396 kts 243°
2026-05-06 03:22 39.95492 -76.64817 31892 ft 396 kts 243°
2026-05-06 03:23 39.92631 -76.70939 31893 ft 396 kts 243°
2026-05-06 03:23 39.89766 -76.77060 31894 ft 395 kts 243°
2026-05-06 03:24 39.86910 -76.83173 31893 ft 395 kts 243°
2026-05-06 03:24 39.84072 -76.89235 31906 ft 395 kts 244°
2026-05-06 03:25 39.81216 -76.95321 31919 ft 394 kts 244°
2026-05-06 03:25 39.78369 -77.01390 31920 ft 393 kts 244°
2026-05-06 03:26 39.75516 -77.07435 31915 ft 392 kts 244°
2026-05-06 03:26 39.72685 -77.13431 31892 ft 392 kts 244°
2026-05-06 03:27 39.69827 -77.19463 31893 ft 392 kts 244°
2026-05-06 03:27 39.66970 -77.25496 31903 ft 392 kts 244°
2026-05-06 03:28 39.64115 -77.31526 31897 ft 392 kts 244°
2026-05-06 03:28 39.61267 -77.37506 31898 ft 392 kts 244°
2026-05-06 03:29 39.58398 -77.43525 31901 ft 392 kts 244°
2026-05-06 03:29 39.55523 -77.49545 31893 ft 394 kts 244°
2026-05-06 03:30 39.52629 -77.55591 31896 ft 395 kts 244°
2026-05-06 03:30 39.49735 -77.61631 31918 ft 394 kts 245°
2026-05-06 03:31 39.46861 -77.67606 31917 ft 393 kts 245°
2026-05-06 03:31 39.43976 -77.73592 31901 ft 392 kts 245°
2026-05-06 03:32 39.41095 -77.79566 31897 ft 391 kts 245°
2026-05-06 03:32 39.38233 -77.85531 31871 ft 389 kts 246°
2026-05-06 03:33 39.35698 -77.91627 31864 ft 387 kts 249°
2026-05-06 03:33 39.33337 -77.97855 31889 ft 386 kts 250°
2026-05-06 03:34 39.30947 -78.04053 31905 ft 385 kts 249°
2026-05-06 03:34 39.28504 -78.10201 31907 ft 384 kts 249°
2026-05-06 03:35 39.26044 -78.16324 31905 ft 384 kts 249°
2026-05-06 03:35 39.23608 -78.22396 31902 ft 384 kts 249°
2026-05-06 03:36 39.21158 -78.28504 31853 ft 383 kts 249°
2026-05-06 03:36 39.18716 -78.34614 31860 ft 384 kts 249°
2026-05-06 03:37 39.16260 -78.40729 31864 ft 384 kts 249°
2026-05-06 03:37 39.13804 -78.46811 31879 ft 386 kts 249°
2026-05-06 03:38 39.11329 -78.52937 31866 ft 385 kts 249°
2026-05-06 03:38 39.08851 -78.59051 31870 ft 385 kts 249°
2026-05-06 03:39 39.06372 -78.65162 31876 ft 385 kts 249°
2026-05-06 03:39 39.03909 -78.71229 31884 ft 385 kts 249°
2026-05-06 03:40 39.01425 -78.77328 31856 ft 385 kts 249°
2026-05-06 03:40 38.98937 -78.83418 31877 ft 385 kts 249°
2026-05-06 03:41 38.96453 -78.89510 31878 ft 385 kts 249°
2026-05-06 03:41 38.93981 -78.95553 31878 ft 385 kts 249°
2026-05-06 03:42 38.91480 -79.01640 31890 ft 385 kts 249°
2026-05-06 03:42 38.88979 -79.07711 31906 ft 384 kts 248°
2026-05-06 03:43 38.86487 -79.13764 31921 ft 383 kts 248°
2026-05-06 03:43 38.84129 -79.19858 31881 ft 377 kts 256°
2026-05-06 03:44 38.82874 -79.26260 31886 ft 372 kts 262°
2026-05-06 03:44 38.81714 -79.32735 31898 ft 372 kts 261°
2026-05-06 03:45 38.80547 -79.39198 31903 ft 372 kts 262°
2026-05-06 03:45 38.79388 -79.45608 31905 ft 372 kts 261°
2026-05-06 03:46 38.78214 -79.52070 31905 ft 372 kts 261°
2026-05-06 03:46 38.77043 -79.58513 31906 ft 371 kts 261°
2026-05-06 03:47 38.75678 -79.66017 31912 ft 371 kts 261°
2026-05-06 03:47 38.71428 -79.89027 31910 ft 370 kts 261°
2026-05-06 03:48 38.66706 -80.14453 31891 ft 370 kts 261°
2026-05-06 03:48 38.61895 -80.39961 31901 ft 368 kts 261°
2026-05-06 03:49 38.57048 -80.65315 31900 ft 365 kts 261°
2026-05-06 03:49 38.52210 -80.90333 31838 ft 361 kts 261°
2026-05-06 03:50 38.47366 -81.15003 31875 ft 360 kts 261°
2026-05-06 03:50 38.42469 -81.39733 31866 ft 359 kts 260°
2026-05-06 03:51 38.37521 -81.64370 31888 ft 359 kts 260°
2026-05-06 03:51 38.31650 -81.88755 31859 ft 363 kts 256°
2026-05-06 03:52 38.24868 -82.13019 31848 ft 364 kts 256°
2026-05-06 03:52 38.18034 -82.37036 31848 ft 363 kts 256°
2026-05-06 03:53 38.11141 -82.61128 31853 ft 362 kts 256°
2026-05-06 03:53 38.04220 -82.85085 31855 ft 361 kts 255°
2026-05-06 03:54 37.97277 -83.08865 31825 ft 359 kts 255°
2026-05-06 03:54 37.90370 -83.32389 31851 ft 358 kts 255°
2026-05-06 03:55 37.83381 -83.55986 31849 ft 358 kts 255°
2026-05-06 03:55 37.76339 -83.79486 31805 ft 357 kts 255°
2026-05-06 03:56 37.69251 -84.02954 31858 ft 357 kts 255°
2026-05-06 03:56 37.58096 -84.23554 31875 ft 379 kts 231°
2026-05-06 03:57 37.42047 -84.41130 31878 ft 383 kts 230°
2026-05-06 03:57 37.34775 -84.49031 31839 ft 380 kts 230°
2026-05-06 03:58 37.30775 -84.53372 31845 ft 380 kts 230°
2026-05-06 03:58 37.26801 -84.57677 31854 ft 380 kts 230°
2026-05-06 03:59 37.22800 -84.62007 31856 ft 380 kts 230°
2026-05-06 03:59 37.18794 -84.66326 31862 ft 380 kts 230°
2026-05-06 04:00 37.14793 -84.70642 31873 ft 379 kts 230°
2026-05-06 04:00 37.10828 -84.74908 31838 ft 378 kts 230°
2026-05-06 04:01 37.06837 -84.79197 31848 ft 378 kts 230°
2026-05-06 04:01 37.02963 -84.83604 31872 ft 370 kts 237°
2026-05-06 04:02 37.00179 -84.88918 31899 ft 370 kts 246°
2026-05-06 04:02 36.98875 -84.91677 31188 ft 368 kts 245°
2026-05-06 04:02 36.97578 -84.94402 30040 ft 370 kts 244°
2026-05-06 04:03 36.96274 -84.97119 29710 ft 358 kts 244°
2026-05-06 04:03 36.95014 -84.99739 29475 ft 347 kts 244°
2026-05-06 04:03 36.93781 -85.02303 29045 ft 342 kts 244°
2026-05-06 04:03 36.92567 -85.04830 28622 ft 337 kts 244°
2026-05-06 04:04 36.91374 -85.07322 28209 ft 332 kts 244°
2026-05-06 04:04 36.90196 -85.09791 27800 ft 330 kts 244°
2026-05-06 04:04 36.89026 -85.12249 27377 ft 328 kts 244°
2026-05-06 04:04 36.87874 -85.14666 26999 ft 328 kts 244°
2026-05-06 04:05 36.86708 -85.17105 26608 ft 327 kts 244°
2026-05-06 04:05 36.85542 -85.19533 26228 ft 325 kts 244°
2026-05-06 04:05 36.84381 -85.21944 25831 ft 324 kts 244°
2026-05-06 04:05 36.83223 -85.24348 25465 ft 322 kts 243°
2026-05-06 04:06 36.82072 -85.26741 25087 ft 321 kts 243°
2026-05-06 04:06 36.80926 -85.29126 24722 ft 320 kts 243°
2026-05-06 04:06 36.79784 -85.31500 24358 ft 318 kts 243°
2026-05-06 04:06 36.78644 -85.33862 23996 ft 317 kts 243°
2026-05-06 04:07 36.77510 -85.36211 23631 ft 316 kts 243°
2026-05-06 04:07 36.76394 -85.38522 23231 ft 314 kts 243°
2026-05-06 04:07 36.75268 -85.40854 22840 ft 313 kts 243°
2026-05-06 04:07 36.74150 -85.43175 22459 ft 312 kts 243°
2026-05-06 04:08 36.73033 -85.45488 22092 ft 310 kts 243°
2026-05-06 04:08 36.71921 -85.47787 21727 ft 309 kts 242°
2026-05-06 04:08 36.70816 -85.50071 21353 ft 307 kts 242°
2026-05-06 04:08 36.69716 -85.52342 20975 ft 305 kts 242°
2026-05-06 04:09 36.68621 -85.54596 20606 ft 303 kts 242°
2026-05-06 04:09 36.67546 -85.56807 20229 ft 301 kts 242°
2026-05-06 04:09 36.66463 -85.59034 19839 ft 300 kts 242°
2026-05-06 04:09 36.65388 -85.61250 19476 ft 298 kts 242°
2026-05-06 04:10 36.64319 -85.63451 19110 ft 296 kts 242°
2026-05-06 04:10 36.63254 -85.65641 18737 ft 295 kts 242°
2026-05-06 04:10 36.62193 -85.67822 18372 ft 293 kts 242°
2026-05-06 04:10 36.61138 -85.69988 17988 ft 292 kts 241°
2026-05-06 04:11 36.60087 -85.72136 17609 ft 290 kts 241°
2026-05-06 04:11 36.59043 -85.74268 17262 ft 287 kts 241°
2026-05-06 04:11 36.58024 -85.76357 17023 ft 286 kts 241°
2026-05-06 04:11 36.56995 -85.78467 16630 ft 285 kts 241°
2026-05-06 04:12 36.55971 -85.80568 16234 ft 283 kts 241°
2026-05-06 04:12 36.54965 -85.82665 15829 ft 282 kts 242°
2026-05-06 04:12 36.53971 -85.84761 15432 ft 281 kts 242°
2026-05-06 04:12 36.52983 -85.86853 15031 ft 280 kts 242°
2026-05-06 04:13 36.51998 -85.88933 14614 ft 279 kts 242°
2026-05-06 04:13 36.51012 -85.91011 14226 ft 279 kts 242°
2026-05-06 04:13 36.50039 -85.93058 13834 ft 279 kts 242°
2026-05-06 04:13 36.49054 -85.95131 13400 ft 278 kts 242°
2026-05-06 04:14 36.48072 -85.97195 12981 ft 277 kts 241°
2026-05-06 04:14 36.47093 -85.99248 12563 ft 276 kts 241°
2026-05-06 04:14 36.46117 -86.01289 12157 ft 274 kts 241°
2026-05-06 04:14 36.45147 -86.03321 11748 ft 273 kts 241°
2026-05-06 04:15 36.44185 -86.05338 11338 ft 269 kts 241°
2026-05-06 04:15 36.43239 -86.07317 10921 ft 263 kts 241°
2026-05-06 04:15 36.42319 -86.09233 10531 ft 254 kts 241°
2026-05-06 04:15 36.41427 -86.11092 10144 ft 254 kts 240°
2026-05-06 04:16 36.40524 -86.12976 9739 ft 254 kts 240°
2026-05-06 04:16 36.39830 -86.14972 9321 ft 252 kts 256°
2026-05-06 04:16 36.39727 -86.17141 8915 ft 255 kts 273°
2026-05-06 04:16 36.40180 -86.19276 8505 ft 257 kts 283°
2026-05-06 04:17 36.40741 -86.21380 8065 ft 257 kts 283°
2026-05-06 04:17 36.41295 -86.23480 7653 ft 255 kts 282°
2026-05-06 04:17 36.41845 -86.25573 7250 ft 255 kts 281°
2026-05-06 04:17 36.42378 -86.27627 6846 ft 253 kts 282°
2026-05-06 04:18 36.42919 -86.29711 6399 ft 253 kts 281°
2026-05-06 04:18 36.43432 -86.31791 6049 ft 247 kts 277°
2026-05-06 04:18 36.43744 -86.33812 6025 ft 229 kts 273°
2026-05-06 04:18 36.43964 -86.35692 6024 ft 211 kts 271°
2026-05-06 04:19 36.44145 -86.37438 6026 ft 199 kts 271°
2026-05-06 04:19 36.44313 -86.39132 6024 ft 197 kts 271°
2026-05-06 04:19 36.44482 -86.40819 6029 ft 197 kts 271°
2026-05-06 04:19 36.44651 -86.42478 6030 ft 196 kts 271°
2026-05-06 04:20 36.44825 -86.44150 6027 ft 195 kts 271°
2026-05-06 04:20 36.45001 -86.45815 6035 ft 194 kts 271°
2026-05-06 04:20 36.45178 -86.47473 6028 ft 193 kts 269°
2026-05-06 04:20 36.45354 -86.49127 6027 ft 193 kts 269°
2026-05-06 04:21 36.45291 -86.50744 6024 ft 186 kts 252°
2026-05-06 04:21 36.44791 -86.52213 6011 ft 185 kts 237°
2026-05-06 04:21 36.43905 -86.53402 5873 ft 191 kts 220°
2026-05-06 04:21 36.42707 -86.54135 5709 ft 196 kts 205°
2026-05-06 04:22 36.41416 -86.54653 5562 ft 198 kts 205°
2026-05-06 04:22 36.40112 -86.55176 5384 ft 196 kts 205°
2026-05-06 04:22 36.38823 -86.55695 5247 ft 194 kts 205°
2026-05-06 04:23 36.36285 -86.56718 4929 ft 192 kts 205°
2026-05-06 04:23 36.35021 -86.57228 4734 ft 190 kts 204°
2026-05-06 04:23 36.33777 -86.57728 4549 ft 187 kts 204°
2026-05-06 04:23 36.32545 -86.58224 4345 ft 184 kts 204°
2026-05-06 04:24 36.31331 -86.58713 4167 ft 183 kts 203°
2026-05-06 04:24 36.30125 -86.59198 3982 ft 182 kts 202°
2026-05-06 04:24 36.28922 -86.59682 3738 ft 181 kts 202°
2026-05-06 04:24 36.27753 -86.60152 3513 ft 175 kts 202°
2026-05-06 04:25 36.26619 -86.60607 3264 ft 167 kts 201°
2026-05-06 04:25 36.25537 -86.61041 3042 ft 159 kts 201°
2026-05-06 04:25 36.24504 -86.61455 2842 ft 150 kts 201°
2026-05-06 04:25 36.23566 -86.61831 2658 ft 138 kts 201°
2026-05-06 04:26 36.22661 -86.62197 2471 ft 135 kts 201°
2026-05-06 04:26 36.21778 -86.62551 2314 ft 134 kts 199°
2026-05-06 04:26 36.20898 -86.62906 2117 ft 132 kts 196°
2026-05-06 04:26 36.20032 -86.63253 2032 ft 131 kts 195°
2026-05-06 04:27 36.19178 -86.63595 2003 ft 132 kts 197°
2026-05-06 04:27 36.18301 -86.63946 1535 ft 133 kts 197°
2026-05-06 04:27 36.17427 -86.64297 1341 ft 131 kts 198°
2026-05-06 04:27 36.16559 -86.64646 1210 ft 130 kts 197°
2026-05-06 04:28 36.15693 -86.64993 1058 ft 130 kts 197°
2026-05-06 04:28 36.14816 -86.65328 875 ft 133 kts 198°
2026-05-06 04:28 36.13966 -86.65693 720 ft 129 kts 199°
2026-05-06 04:28 36.13116 -86.66022 593 ft 128 kts 200°
2026-05-06 04:29 36.12346 -86.66350 569 ft 104 kts 197°
2026-05-06 04:29 36.11953 -86.66499 578 ft 28 kts 198°
2026-05-06 04:29 36.11878 -86.66529 580 ft 2 kts 198°
2026-05-06 04:29 36.11865 -86.66538 580 ft 6 kts 214°
2026-05-06 04:30 36.11850 -86.66604 581 ft 8 kts 283°
2026-05-06 04:30 36.11895 -86.66643 580 ft 9 kts 353°
2026-05-06 04:30 36.11959 -86.66630 584 ft 10 kts 14°
2026-05-06 04:30 36.12032 -86.66604 582 ft 12 kts 18°
2026-05-06 04:31 36.12121 -86.66567 572 ft 15 kts 14°
2026-05-06 04:31 36.12219 -86.66533 572 ft 10 kts 16°
2026-05-06 04:31 36.12276 -86.66553 571 ft 8 kts 314°
2026-05-06 04:31 36.12297 -86.66621 569 ft 9 kts 288°
2026-05-06 04:32 36.12317 -86.66693 572 ft 11 kts 291°
2026-05-06 04:32 36.12352 -86.66805 576 ft 18 kts 294°
2026-05-06 04:32 36.12425 -86.66920 571 ft 14 kts 319°
2026-05-06 04:32 36.12515 -86.66934 572 ft 13 kts 13°
2026-05-06 04:33 36.12603 -86.66942 573 ft 17 kts 351°
2026-05-06 04:33 36.12681 -86.66964 574 ft 0 kts 352°
2026-05-06 04:33 36.12703 -86.66960 571 ft 7 kts 17°
2026-05-06 04:33 36.12734 -86.66942 572 ft 1 kts 27°
2026-05-06 04:34 36.12745 -86.66936 569 ft 1 kts 27°
2026-05-06 04:34 36.12747 -86.66934 569 ft 0 kts 27°